Home   Weather   Menominee   Past weeks
Flag for USA

Past Weather in Menominee, Michigan, USA — January 2020

Now
32 °F

Sunny.


Feels Like: 22 °F
Forecast: 34 / 6 °F
Wind: 14 mph from Southwest

Location: Menominee Weather Reporting Station

Current Time: Feb 21, 2020 at 1:37:19 pm

Latest Report: Feb 21, 2020 at 12:56 pm


Visibility: 10 mi

Pressure: 30.19 "Hg

Humidity: 45%

Dew Point: 13 °F

Location of MenomineeLocation

January 2020 Weather in Menominee — Graph

°F

High & Low Weather Summary for January 2020

 TemperatureHumidityPressure
High43 °F (Jan 2, 2:25 pm)100% (Jan 14, 7:32 am)30.88 "Hg (Jan 14, 7:32 am)
Low-2 °F (Jan 17, 5:56 am)31% (Jan 7, 1:56 pm)29.38 "Hg (Jan 2, 5:56 am)
Average27 °F82%30.08 "Hg
* Reported Jan 1 12:56 am — Jan 31 11:56 pm, Menominee. Weather by CustomWeather, © 2020

Note: Actual official high and low records may vary slightly from our data, if they occured in-between our weather recording intervals... More about our weather records

Menominee Weather History for January 1, 2020

Scroll right to see more
 ConditionsComfort  
Time TempWeatherWind HumidityBarometerVisibility
12:56 am
Wed, Jan 1
13 °FClear.5 mph92%29.72 "Hg10 mi
1:56 am13 °FClear.5 mph92%29.74 "Hg10 mi
2:56 am12 °FClear.6 mph92%29.74 "Hg10 mi
3:56 am12 °FClear.5 mph92%29.72 "Hg10 mi
4:56 am13 °FClear.8 mph92%29.70 "Hg10 mi
5:56 am13 °FClear.6 mph92%29.70 "Hg10 mi
6:56 am12 °FSunny.6 mph92%29.70 "Hg9 mi
7:56 am13 °FIce fog.7 mph88%29.68 "Hg6 mi
8:56 am16 °FSunny.9 mph87%29.68 "Hg8 mi
9:56 am19 °FSunny.7 mph88%29.67 "Hg9 mi
10:56 am23 °FSunny.8 mph85%29.63 "Hg10 mi
11:56 am26 °FSunny.7 mph88%29.59 "Hg10 mi
12:56 pm26 °FSunny.10 mph84%29.55 "Hg10 mi
1:56 pm28 °FSunny.13 mph85%29.50 "Hg10 mi
2:56 pm30 °FSunny.15 mph82%29.48 "Hg10 mi
3:56 pm31 °FClear.12 mph82%29.48 "Hg10 mi
4:56 pm30 °FPassing clouds.5 mph89%29.47 "Hg10 mi
5:56 pm30 °FPassing clouds.3 mph89%29.47 "Hg10 mi
6:56 pm31 °FOvercast.6 mph89%29.47 "Hg10 mi
7:56 pm32 °FPassing clouds.8 mph88%29.46 "Hg10 mi
8:56 pm34 °FOvercast.12 mph85%29.44 "Hg10 mi
9:56 pm34 °FOvercast.8 mph85%29.44 "Hg10 mi
10:56 pm33 °FPassing clouds.8 mph88%29.43 "Hg10 mi
11:56 pm31 °FPassing clouds.6 mph96%29.41 "Hg10 mi
Weather by CustomWeather, © 2020

See weather overview

Advertising